owner,sensor,date,latitude,longitude,vertical_datum,sea_water_temperature,qcFlag 
SCCF RECON,ioos:station:SCCF:11:1,2019-08-01T04:00:00Z,26.4679,-82.0631,1.74,30.39,11111222 
SCCF RECON,ioos:station:SCCF:11:1,2019-08-01T05:00:00Z,26.4679,-82.0631,1.74,30.58,11111222 
SCCF RECON,ioos:station:SCCF:11:1,2019-08-01T06:00:00Z,26.4679,-82.0631,1.74,30.42,11111222 
SCCF RECON,ioos:station:SCCF:11:1,2019-08-01T07:00:00Z,26.4679,-82.0631,1.74,30.37,11111222 
SCCF RECON,ioos:station:SCCF:11:1,2019-08-01T08:00:00Z,26.4679,-82.0631,1.74,30.29,11111222 
SCCF RECON,ioos:station:SCCF:11:1,2019-08-01T09:00:00Z,26.4679,-82.0631,1.74,30.33,11111222 
SCCF RECON,ioos:station:SCCF:11:1,2019-08-01T10:00:00Z,26.4679,-82.0631,1.74,29.83,11111222 
SCCF RECON,ioos:station:SCCF:11:1,2019-08-01T11:00:00Z,26.4679,-82.0631,1.74,29.52,11111222 
SCCF RECON,ioos:station:SCCF:11:1,2019-08-01T12:00:00Z,26.4679,-82.0631,1.74,29.52,11111222 
SCCF RECON,ioos:station:SCCF:11:1,2019-08-01T13:00:00Z,26.4679,-82.0631,1.74,29.8,11111222 
SCCF RECON,ioos:station:SCCF:11:1,2019-08-01T14:00:00Z,26.4679,-82.0631,1.74,29.88,11111222 
SCCF RECON,ioos:station:SCCF:11:1,2019-08-01T15:00:00Z,26.4679,-82.0631,1.74,30.01,11111222 
SCCF RECON,ioos:station:SCCF:11:1,2019-08-01T16:00:00Z,26.4679,-82.0631,1.74,30.27,11111222 
SCCF RECON,ioos:station:SCCF:11:1,2019-08-01T17:00:00Z,26.4679,-82.0631,1.74,30.51,11111222 
SCCF RECON,ioos:station:SCCF:11:1,2019-08-01T18:00:00Z,26.4679,-82.0631,1.74,30.36,11111222 
SCCF RECON,ioos:station:SCCF:11:1,2019-08-01T19:00:00Z,26.4679,-82.0631,1.74,30.42,11111222 
SCCF RECON,ioos:station:SCCF:11:1,2019-08-01T20:00:00Z,26.4679,-82.0631,1.74,30.51,11111222 
SCCF RECON,ioos:station:SCCF:11:1,2019-08-01T21:00:00Z,26.4679,-82.0631,1.74,30.39,11111222 
SCCF RECON,ioos:station:SCCF:11:1,2019-08-01T22:00:00Z,26.4679,-82.0631,1.74,30.28,11111222 
SCCF RECON,ioos:station:SCCF:11:1,2019-08-01T23:00:00Z,26.4679,-82.0631,1.74,30.15,11111222 
SCCF RECON,ioos:station:SCCF:11:1,2019-08-02T04:00:00Z,26.4679,-82.0631,1.74,29.12,11111222 
SCCF RECON,ioos:station:SCCF:11:1,2019-08-02T05:00:00Z,26.4679,-82.0631,1.74,29.38,11111222 
SCCF RECON,ioos:station:SCCF:11:1,2019-08-02T06:00:00Z,26.4679,-82.0631,1.74,29.57,11111222 
SCCF RECON,ioos:station:SCCF:11:1,2019-08-02T07:00:00Z,26.4679,-82.0631,1.74,29.61,11111222 
SCCF RECON,ioos:station:SCCF:11:1,2019-08-02T08:00:00Z,26.4679,-82.0631,1.74,29.38,11111222 
SCCF RECON,ioos:station:SCCF:11:1,2019-08-02T09:00:00Z,26.4679,-82.0631,1.74,29.52,11111222 
SCCF RECON,ioos:station:SCCF:11:1,2019-08-02T10:00:00Z,26.4679,-82.0631,1.74,28.9,11111222 
SCCF RECON,ioos:station:SCCF:11:1,2019-08-02T11:00:00Z,26.4679,-82.0631,1.74,29.05,11111222 
SCCF RECON,ioos:station:SCCF:11:1,2019-08-02T12:00:00Z,26.4679,-82.0631,1.74,28.73,11111222 
SCCF RECON,ioos:station:SCCF:11:1,2019-08-02T13:00:00Z,26.4679,-82.0631,1.74,28.96,11111222 
SCCF RECON,ioos:station:SCCF:11:1,2019-08-02T14:00:00Z,26.4679,-82.0631,1.74,29.28,11111222 
SCCF RECON,ioos:station:SCCF:11:1,2019-08-02T15:00:00Z,26.4679,-82.0631,1.74,29.33,11111222 
SCCF RECON,ioos:station:SCCF:11:1,2019-08-02T16:00:00Z,26.4679,-82.0631,1.74,29.38,11111222 
SCCF RECON,ioos:station:SCCF:11:1,2019-08-02T17:00:00Z,26.4679,-82.0631,1.74,29.44,11111222 
SCCF RECON,ioos:station:SCCF:11:1,2019-08-02T18:00:00Z,26.4679,-82.0631,1.74,29.5,11111222 
SCCF RECON,ioos:station:SCCF:11:1,2019-08-02T19:00:00Z,26.4679,-82.0631,1.74,29.52,11111222 
SCCF RECON,ioos:station:SCCF:11:1,2019-08-02T20:00:00Z,26.4679,-82.0631,1.74,29.73,11111222 
SCCF RECON,ioos:station:SCCF:11:1,2019-08-02T21:00:00Z,26.4679,-82.0631,1.74,29.33,11111222 
SCCF RECON,ioos:station:SCCF:11:1,2019-08-02T22:00:00Z,26.4679,-82.0631,1.74,29.18,11111222 
SCCF RECON,ioos:station:SCCF:11:1,2019-08-02T23:00:00Z,26.4679,-82.0631,1.74,29.08,11111222 
SCCF RECON,ioos:station:SCCF:11:1,2019-08-03T04:00:00Z,26.4679,-82.0631,1.74,28.78,11111222 
SCCF RECON,ioos:station:SCCF:11:1,2019-08-03T05:00:00Z,26.4679,-82.0631,1.74,28.77,11111222 
SCCF RECON,ioos:station:SCCF:11:1,2019-08-03T06:00:00Z,26.4679,-82.0631,1.74,28.77,11111222 
SCCF RECON,ioos:station:SCCF:11:1,2019-08-03T07:00:00Z,26.4679,-82.0631,1.74,28.85,11111222 
SCCF RECON,ioos:station:SCCF:11:1,2019-08-03T08:00:00Z,26.4679,-82.0631,1.74,28.84,11111222 
SCCF RECON,ioos:station:SCCF:11:1,2019-08-03T09:00:00Z,26.4679,-82.0631,1.74,29.08,11111222 
SCCF RECON,ioos:station:SCCF:11:1,2019-08-03T10:00:00Z,26.4679,-82.0631,1.74,28.95,11111222 
SCCF RECON,ioos:station:SCCF:11:1,2019-08-03T11:00:00Z,26.4679,-82.0631,1.74,28.5,11111222 
SCCF RECON,ioos:station:SCCF:11:1,2019-08-03T12:00:00Z,26.4679,-82.0631,1.74,28.49,11111222 
SCCF RECON,ioos:station:SCCF:11:1,2019-08-03T13:00:00Z,26.4679,-82.0631,1.74,28.25,11111222 
SCCF RECON,ioos:station:SCCF:11:1,2019-08-03T14:00:00Z,26.4679,-82.0631,1.74,28.19,11111222 
SCCF RECON,ioos:station:SCCF:11:1,2019-08-03T15:00:00Z,26.4679,-82.0631,1.74,28.68,11111222 
SCCF RECON,ioos:station:SCCF:11:1,2019-08-03T16:00:00Z,26.4679,-82.0631,1.74,29.07,11111222 
SCCF RECON,ioos:station:SCCF:11:1,2019-08-03T17:00:00Z,26.4679,-82.0631,1.74,29.13,11111222 
SCCF RECON,ioos:station:SCCF:11:1,2019-08-03T18:00:00Z,26.4679,-82.0631,1.74,29.32,11111222 
SCCF RECON,ioos:station:SCCF:11:1,2019-08-03T19:00:00Z,26.4679,-82.0631,1.74,29.64,11111222 
SCCF RECON,ioos:station:SCCF:11:1,2019-08-03T20:00:00Z,26.4679,-82.0631,1.74,29.69,11111222 
SCCF RECON,ioos:station:SCCF:11:1,2019-08-03T21:00:00Z,26.4679,-82.0631,1.74,29.49,11111222 
SCCF RECON,ioos:station:SCCF:11:1,2019-08-03T22:00:00Z,26.4679,-82.0631,1.74,30.1,11111222 
SCCF RECON,ioos:station:SCCF:11:1,2019-08-03T23:00:00Z,26.4679,-82.0631,1.74,30.17,11111222 
SCCF RECON,ioos:station:SCCF:11:1,2019-08-04T04:00:00Z,26.4679,-82.0631,1.74,29.65,11111222 
SCCF RECON,ioos:station:SCCF:11:1,2019-08-04T05:00:00Z,26.4679,-82.0631,1.74,29.62,11111222 
SCCF RECON,ioos:station:SCCF:11:1,2019-08-04T06:00:00Z,26.4679,-82.0631,1.74,29.52,11111222 
SCCF RECON,ioos:station:SCCF:11:1,2019-08-04T07:00:00Z,26.4679,-82.0631,1.74,29.57,11111222 
SCCF RECON,ioos:station:SCCF:11:1,2019-08-04T08:00:00Z,26.4679,-82.0631,1.74,29.57,11111222 
SCCF RECON,ioos:station:SCCF:11:1,2019-08-04T09:00:00Z,26.4679,-82.0631,1.74,29.53,11111222 
SCCF RECON,ioos:station:SCCF:11:1,2019-08-04T10:00:00Z,26.4679,-82.0631,1.74,29.53,11111222 
SCCF RECON,ioos:station:SCCF:11:1,2019-08-04T11:00:00Z,26.4679,-82.0631,1.74,29.34,11111222 
SCCF RECON,ioos:station:SCCF:11:1,2019-08-04T12:00:00Z,26.4679,-82.0631,1.74,29.31,11111222 
SCCF RECON,ioos:station:SCCF:11:1,2019-08-04T13:00:00Z,26.4679,-82.0631,1.74,29.17,11111222 
SCCF RECON,ioos:station:SCCF:11:1,2019-08-04T14:00:00Z,26.4679,-82.0631,1.74,29.12,11111222 
SCCF RECON,ioos:station:SCCF:11:1,2019-08-04T15:00:00Z,26.4679,-82.0631,1.74,29.48,11111222 
SCCF RECON,ioos:station:SCCF:11:1,2019-08-04T16:00:00Z,26.4679,-82.0631,1.74,29.78,11111222 
SCCF RECON,ioos:station:SCCF:11:1,2019-08-04T17:00:00Z,26.4679,-82.0631,1.74,29.92,11111222 
SCCF RECON,ioos:station:SCCF:11:1,2019-08-04T18:00:00Z,26.4679,-82.0631,1.74,29.93,11111222 
SCCF RECON,ioos:station:SCCF:11:1,2019-08-04T19:00:00Z,26.4679,-82.0631,1.74,29.71,11111222 
SCCF RECON,ioos:station:SCCF:11:1,2019-08-04T20:00:00Z,26.4679,-82.0631,1.74,29.73,11111222 
SCCF RECON,ioos:station:SCCF:11:1,2019-08-04T21:00:00Z,26.4679,-82.0631,1.74,29.87,11111222 
SCCF RECON,ioos:station:SCCF:11:1,2019-08-04T22:00:00Z,26.4679,-82.0631,1.74,29.81,11111222 
SCCF RECON,ioos:station:SCCF:11:1,2019-08-04T23:00:00Z,26.4679,-82.0631,1.74,30.44,11111222 
SCCF RECON,ioos:station:SCCF:11:1,2019-08-05T04:00:00Z,26.4679,-82.0631,1.74,29.81,11111222 
SCCF RECON,ioos:station:SCCF:11:1,2019-08-05T05:00:00Z,26.4679,-82.0631,1.74,29.75,11111222 
SCCF RECON,ioos:station:SCCF:11:1,2019-08-05T06:00:00Z,26.4679,-82.0631,1.74,29.66,11111222 
SCCF RECON,ioos:station:SCCF:11:1,2019-08-05T07:00:00Z,26.4679,-82.0631,1.74,29.69,11111222 
SCCF RECON,ioos:station:SCCF:11:1,2019-08-05T08:00:00Z,26.4679,-82.0631,1.74,29.71,11111222 
SCCF RECON,ioos:station:SCCF:11:1,2019-08-05T09:00:00Z,26.4679,-82.0631,1.74,29.68,11111222 
SCCF RECON,ioos:station:SCCF:11:1,2019-08-05T10:00:00Z,26.4679,-82.0631,1.74,29.71,11111222 
SCCF RECON,ioos:station:SCCF:11:1,2019-08-05T11:00:00Z,26.4679,-82.0631,1.74,29.49,11111222 
SCCF RECON,ioos:station:SCCF:11:1,2019-08-05T12:00:00Z,26.4679,-82.0631,1.74,29.32,11111222 
SCCF RECON,ioos:station:SCCF:11:1,2019-08-05T13:00:00Z,26.4679,-82.0631,1.74,29.3,11111222 
SCCF RECON,ioos:station:SCCF:11:1,2019-08-05T14:00:00Z,26.4679,-82.0631,1.74,29.39,11111222 
SCCF RECON,ioos:station:SCCF:11:1,2019-08-05T15:00:00Z,26.4679,-82.0631,1.74,29.47,11111222 
SCCF RECON,ioos:station:SCCF:11:1,2019-08-05T16:00:00Z,26.4679,-82.0631,1.74,29.77,11111222 
SCCF RECON,ioos:station:SCCF:11:1,2019-08-05T17:00:00Z,26.4679,-82.0631,1.74,29.81,11111222 
SCCF RECON,ioos:station:SCCF:11:1,2019-08-05T18:00:00Z,26.4679,-82.0631,1.74,29.82,11111222 
SCCF RECON,ioos:station:SCCF:11:1,2019-08-05T19:00:00Z,26.4679,-82.0631,1.74,29.89,11111222 
SCCF RECON,ioos:station:SCCF:11:1,2019-08-05T20:00:00Z,26.4679,-82.0631,1.74,29.91,11111222 
SCCF RECON,ioos:station:SCCF:11:1,2019-08-05T21:00:00Z,26.4679,-82.0631,1.74,29.96,11111222 
SCCF RECON,ioos:station:SCCF:11:1,2019-08-05T22:00:00Z,26.4679,-82.0631,1.74,29.93,11111222 
SCCF RECON,ioos:station:SCCF:11:1,2019-08-05T23:00:00Z,26.4679,-82.0631,1.74,29.93,11111222 
SCCF RECON,ioos:station:SCCF:11:1,2019-08-06T04:00:00Z,26.4679,-82.0631,1.74,29.92,11111222 
SCCF RECON,ioos:station:SCCF:11:1,2019-08-06T05:00:00Z,26.4679,-82.0631,1.74,29.76,11111222 
SCCF RECON,ioos:station:SCCF:11:1,2019-08-06T06:00:00Z,26.4679,-82.0631,1.74,29.63,11111222 
SCCF RECON,ioos:station:SCCF:11:1,2019-08-06T07:00:00Z,26.4679,-82.0631,1.74,29.59,11111222 
SCCF RECON,ioos:station:SCCF:11:1,2019-08-06T08:00:00Z,26.4679,-82.0631,1.74,29.57,11111222 
SCCF RECON,ioos:station:SCCF:11:1,2019-08-06T09:00:00Z,26.4679,-82.0631,1.74,29.57,11111222 
SCCF RECON,ioos:station:SCCF:11:1,2019-08-06T10:00:00Z,26.4679,-82.0631,1.74,29.62,11111222 
SCCF RECON,ioos:station:SCCF:11:1,2019-08-06T11:00:00Z,26.4679,-82.0631,1.74,29.65,11111222 
SCCF RECON,ioos:station:SCCF:11:1,2019-08-06T12:00:00Z,26.4679,-82.0631,1.74,29.49,11111222 
SCCF RECON,ioos:station:SCCF:11:1,2019-08-06T13:00:00Z,26.4679,-82.0631,1.74,29.44,11111222 
SCCF RECON,ioos:station:SCCF:11:1,2019-08-06T14:00:00Z,26.4679,-82.0631,1.74,29.58,11111222 
SCCF RECON,ioos:station:SCCF:11:1,2019-08-06T15:00:00Z,26.4679,-82.0631,1.74,29.76,11111222 
SCCF RECON,ioos:station:SCCF:11:1,2019-08-06T16:00:00Z,26.4679,-82.0631,1.74,30.06,11111222 
SCCF RECON,ioos:station:SCCF:11:1,2019-08-06T17:00:00Z,26.4679,-82.0631,1.74,30.38,11111222 
SCCF RECON,ioos:station:SCCF:11:1,2019-08-06T18:00:00Z,26.4679,-82.0631,1.74,30.38,11111222 
SCCF RECON,ioos:station:SCCF:11:1,2019-08-06T19:00:00Z,26.4679,-82.0631,1.74,30.62,11111222 
SCCF RECON,ioos:station:SCCF:11:1,2019-08-06T20:00:00Z,26.4679,-82.0631,1.74,30.71,11111222 
SCCF RECON,ioos:station:SCCF:11:1,2019-08-06T21:00:00Z,26.4679,-82.0631,1.74,30.83,11111222 
SCCF RECON,ioos:station:SCCF:11:1,2019-08-06T22:00:00Z,26.4679,-82.0631,1.74,30.77,11111222 
SCCF RECON,ioos:station:SCCF:11:1,2019-08-06T23:00:00Z,26.4679,-82.0631,1.74,30.83,11111222 
SCCF RECON,ioos:station:SCCF:11:1,2019-08-07T04:00:00Z,26.4679,-82.0631,1.74,30.68,11111222 
SCCF RECON,ioos:station:SCCF:11:1,2019-08-07T05:00:00Z,26.4679,-82.0631,1.74,30.33,11111222 
SCCF RECON,ioos:station:SCCF:11:1,2019-08-07T06:00:00Z,26.4679,-82.0631,1.74,30.16,11111222 
SCCF RECON,ioos:station:SCCF:11:1,2019-08-07T07:00:00Z,26.4679,-82.0631,1.74,30.04,11111222 
SCCF RECON,ioos:station:SCCF:11:1,2019-08-07T08:00:00Z,26.4679,-82.0631,1.74,30.19,11111222 
SCCF RECON,ioos:station:SCCF:11:1,2019-08-07T09:00:00Z,26.4679,-82.0631,1.74,30.06,11111222 
SCCF RECON,ioos:station:SCCF:11:1,2019-08-07T10:00:00Z,26.4679,-82.0631,1.74,30.17,11111222 
SCCF RECON,ioos:station:SCCF:11:1,2019-08-07T11:00:00Z,26.4679,-82.0631,1.74,30.14,11111222 
SCCF RECON,ioos:station:SCCF:11:1,2019-08-07T12:00:00Z,26.4679,-82.0631,1.74,30.21,11111222 
SCCF RECON,ioos:station:SCCF:11:1,2019-08-07T13:00:00Z,26.4679,-82.0631,1.74,30.08,11111222 
SCCF RECON,ioos:station:SCCF:11:1,2019-08-07T14:00:00Z,26.4679,-82.0631,1.74,30.17,11111222 
SCCF RECON,ioos:station:SCCF:11:1,2019-08-07T15:00:00Z,26.4679,-82.0631,1.74,30.36,11111222 
SCCF RECON,ioos:station:SCCF:11:1,2019-08-07T16:00:00Z,26.4679,-82.0631,1.74,30.56,11111222 
SCCF RECON,ioos:station:SCCF:11:1,2019-08-07T17:00:00Z,26.4679,-82.0631,1.74,30.82,11111222 
SCCF RECON,ioos:station:SCCF:11:1,2019-08-07T18:00:00Z,26.4679,-82.0631,1.74,31.23,11111222 
SCCF RECON,ioos:station:SCCF:11:1,2019-08-07T19:00:00Z,26.4679,-82.0631,1.74,31.38,11111222 
SCCF RECON,ioos:station:SCCF:11:1,2019-08-07T20:00:00Z,26.4679,-82.0631,1.74,31.59,11111222 
SCCF RECON,ioos:station:SCCF:11:1,2019-08-07T21:00:00Z,26.4679,-82.0631,1.74,31.35,11111222 
SCCF RECON,ioos:station:SCCF:11:1,2019-08-07T22:00:00Z,26.4679,-82.0631,1.74,31.6,11111222 
SCCF RECON,ioos:station:SCCF:11:1,2019-08-07T23:00:00Z,26.4679,-82.0631,1.74,31.36,11111222 
SCCF RECON,ioos:station:SCCF:11:1,2019-08-08T04:00:00Z,26.4679,-82.0631,1.74,31.45,11111222 
SCCF RECON,ioos:station:SCCF:11:1,2019-08-08T05:00:00Z,26.4679,-82.0631,1.74,31.32,11111222 
SCCF RECON,ioos:station:SCCF:11:1,2019-08-08T06:00:00Z,26.4679,-82.0631,1.74,31.26,11111222 
SCCF RECON,ioos:station:SCCF:11:1,2019-08-08T07:00:00Z,26.4679,-82.0631,1.74,31.29,11111222 
SCCF RECON,ioos:station:SCCF:11:1,2019-08-08T08:00:00Z,26.4679,-82.0631,1.74,31.2,11111222 
SCCF RECON,ioos:station:SCCF:11:1,2019-08-08T09:00:00Z,26.4679,-82.0631,1.74,31.12,11111222 
SCCF RECON,ioos:station:SCCF:11:1,2019-08-08T10:00:00Z,26.4679,-82.0631,1.74,30.99,11111222 
SCCF RECON,ioos:station:SCCF:11:1,2019-08-08T11:00:00Z,26.4679,-82.0631,1.74,31.01,11111222 
SCCF RECON,ioos:station:SCCF:11:1,2019-08-08T12:00:00Z,26.4679,-82.0631,1.74,30.84,11111222 
SCCF RECON,ioos:station:SCCF:11:1,2019-08-08T13:00:00Z,26.4679,-82.0631,1.74,30.74,11111222 
SCCF RECON,ioos:station:SCCF:11:1,2019-08-08T14:00:00Z,26.4679,-82.0631,1.74,30.88,11111222 
SCCF RECON,ioos:station:SCCF:11:1,2019-08-08T15:00:00Z,26.4679,-82.0631,1.74,31.15,11111222 
SCCF RECON,ioos:station:SCCF:11:1,2019-08-08T16:00:00Z,26.4679,-82.0631,1.74,31.46,11111222 
SCCF RECON,ioos:station:SCCF:11:1,2019-08-08T17:00:00Z,26.4679,-82.0631,1.74,31.78,11111222 
SCCF RECON,ioos:station:SCCF:11:1,2019-08-08T18:00:00Z,26.4679,-82.0631,1.74,32.34,11111222 
SCCF RECON,ioos:station:SCCF:11:1,2019-08-08T19:00:00Z,26.4679,-82.0631,1.74,32.48,11111222 
SCCF RECON,ioos:station:SCCF:11:1,2019-08-08T20:00:00Z,26.4679,-82.0631,1.74,32.53,11111222 
SCCF RECON,ioos:station:SCCF:11:1,2019-08-08T21:00:00Z,26.4679,-82.0631,1.74,32.71,11111222 
SCCF RECON,ioos:station:SCCF:11:1,2019-08-08T22:00:00Z,26.4679,-82.0631,1.74,32.12,11111222 
SCCF RECON,ioos:station:SCCF:11:1,2019-08-08T23:00:00Z,26.4679,-82.0631,1.74,31.95,11111222 
SCCF RECON,ioos:station:SCCF:11:1,2019-08-09T04:00:00Z,26.4679,-82.0631,1.74,31.87,11111222 
SCCF RECON,ioos:station:SCCF:11:1,2019-08-09T05:00:00Z,26.4679,-82.0631,1.74,31.83,11111222 
SCCF RECON,ioos:station:SCCF:11:1,2019-08-09T06:00:00Z,26.4679,-82.0631,1.74,31.61,11111222 
SCCF RECON,ioos:station:SCCF:11:1,2019-08-09T07:00:00Z,26.4679,-82.0631,1.74,31.29,11111222 
SCCF RECON,ioos:station:SCCF:11:1,2019-08-09T08:00:00Z,26.4679,-82.0631,1.74,31.04,11111222 
SCCF RECON,ioos:station:SCCF:11:1,2019-08-09T09:00:00Z,26.4679,-82.0631,1.74,30.96,11111222 
SCCF RECON,ioos:station:SCCF:11:1,2019-08-09T10:00:00Z,26.4679,-82.0631,1.74,30.91,11111222 
SCCF RECON,ioos:station:SCCF:11:1,2019-08-09T11:00:00Z,26.4679,-82.0631,1.74,30.8,11111222 
SCCF RECON,ioos:station:SCCF:11:1,2019-08-09T12:00:00Z,26.4679,-82.0631,1.74,30.84,11111222 
SCCF RECON,ioos:station:SCCF:11:1,2019-08-09T13:00:00Z,26.4679,-82.0631,1.74,31.29,11111222 
SCCF RECON,ioos:station:SCCF:11:1,2019-08-09T14:00:00Z,26.4679,-82.0631,1.74,31.37,11111222 
SCCF RECON,ioos:station:SCCF:11:1,2019-08-09T15:00:00Z,26.4679,-82.0631,1.74,31.2,11111222 
SCCF RECON,ioos:station:SCCF:11:1,2019-08-09T16:00:00Z,26.4679,-82.0631,1.74,31.51,11111222 
SCCF RECON,ioos:station:SCCF:11:1,2019-08-09T17:00:00Z,26.4679,-82.0631,1.74,31.75,11111222 
SCCF RECON,ioos:station:SCCF:11:1,2019-08-09T18:00:00Z,26.4679,-82.0631,1.74,31.85,11111222 
SCCF RECON,ioos:station:SCCF:11:1,2019-08-09T19:00:00Z,26.4679,-82.0631,1.74,31.86,11111222 
SCCF RECON,ioos:station:SCCF:11:1,2019-08-09T20:00:00Z,26.4679,-82.0631,1.74,31.73,11111222 
SCCF RECON,ioos:station:SCCF:11:1,2019-08-09T21:00:00Z,26.4679,-82.0631,1.74,31.65,11111222 
SCCF RECON,ioos:station:SCCF:11:1,2019-08-09T22:00:00Z,26.4679,-82.0631,1.74,31.66,11111222 
SCCF RECON,ioos:station:SCCF:11:1,2019-08-09T23:00:00Z,26.4679,-82.0631,1.74,31.54,11111222 
SCCF RECON,ioos:station:SCCF:11:1,2019-08-10T04:00:00Z,26.4679,-82.0631,1.74,31.12,11111222 
SCCF RECON,ioos:station:SCCF:11:1,2019-08-10T05:00:00Z,26.4679,-82.0631,1.74,31.31,11111222 
SCCF RECON,ioos:station:SCCF:11:1,2019-08-10T06:00:00Z,26.4679,-82.0631,1.74,31.2,11111222 
SCCF RECON,ioos:station:SCCF:11:1,2019-08-10T07:00:00Z,26.4679,-82.0631,1.74,31.07,11111222 
SCCF RECON,ioos:station:SCCF:11:1,2019-08-10T08:00:00Z,26.4679,-82.0631,1.74,30.34,11111222 
SCCF RECON,ioos:station:SCCF:11:1,2019-08-10T09:00:00Z,26.4679,-82.0631,1.74,30.66,11111222 
SCCF RECON,ioos:station:SCCF:11:1,2019-08-10T10:00:00Z,26.4679,-82.0631,1.74,30.72,11111222 
SCCF RECON,ioos:station:SCCF:11:1,2019-08-10T11:00:00Z,26.4679,-82.0631,1.74,30.7,11111222 
SCCF RECON,ioos:station:SCCF:11:1,2019-08-10T12:00:00Z,26.4679,-82.0631,1.74,30.62,11111222 
SCCF RECON,ioos:station:SCCF:11:1,2019-08-10T13:00:00Z,26.4679,-82.0631,1.74,30.83,11111222 
SCCF RECON,ioos:station:SCCF:11:1,2019-08-10T14:00:00Z,26.4679,-82.0631,1.74,31.29,11111222 
SCCF RECON,ioos:station:SCCF:11:1,2019-08-10T15:00:00Z,26.4679,-82.0631,1.74,31.02,11111222 
SCCF RECON,ioos:station:SCCF:11:1,2019-08-10T16:00:00Z,26.4679,-82.0631,1.74,30.89,11111222 
SCCF RECON,ioos:station:SCCF:11:1,2019-08-10T17:00:00Z,26.4679,-82.0631,1.74,30.97,11111222 
SCCF RECON,ioos:station:SCCF:11:1,2019-08-10T18:00:00Z,26.4679,-82.0631,1.74,30.97,11111222 
SCCF RECON,ioos:station:SCCF:11:1,2019-08-10T19:00:00Z,26.4679,-82.0631,1.74,31.03,11111222 
SCCF RECON,ioos:station:SCCF:11:1,2019-08-10T20:00:00Z,26.4679,-82.0631,1.74,31.08,11111222 
SCCF RECON,ioos:station:SCCF:11:1,2019-08-10T21:00:00Z,26.4679,-82.0631,1.74,31.04,11111222 
SCCF RECON,ioos:station:SCCF:11:1,2019-08-10T22:00:00Z,26.4679,-82.0631,1.74,31.1,11111222 
SCCF RECON,ioos:station:SCCF:11:1,2019-08-10T23:00:00Z,26.4679,-82.0631,1.74,30.99,11111222 
SCCF RECON,ioos:station:SCCF:11:1,2019-08-11T04:00:00Z,26.4679,-82.0631,1.74,30.98,11111222 
SCCF RECON,ioos:station:SCCF:11:1,2019-08-11T05:00:00Z,26.4679,-82.0631,1.74,30.8,11111222 
SCCF RECON,ioos:station:SCCF:11:1,2019-08-11T06:00:00Z,26.4679,-82.0631,1.74,30.83,11111222 
SCCF RECON,ioos:station:SCCF:11:1,2019-08-11T07:00:00Z,26.4679,-82.0631,1.74,30.83,11111222 
SCCF RECON,ioos:station:SCCF:11:1,2019-08-11T08:00:00Z,26.4679,-82.0631,1.74,30.78,11111222 
SCCF RECON,ioos:station:SCCF:11:1,2019-08-11T09:00:00Z,26.4679,-82.0631,1.74,30.83,11111222 
SCCF RECON,ioos:station:SCCF:11:1,2019-08-11T10:00:00Z,26.4679,-82.0631,1.74,30.76,11111222 
SCCF RECON,ioos:station:SCCF:11:1,2019-08-11T11:00:00Z,26.4679,-82.0631,1.74,30.74,11111222 
SCCF RECON,ioos:station:SCCF:11:1,2019-08-11T12:00:00Z,26.4679,-82.0631,1.74,30.82,11111222 
SCCF RECON,ioos:station:SCCF:11:1,2019-08-11T13:00:00Z,26.4679,-82.0631,1.74,30.85,11111222 
SCCF RECON,ioos:station:SCCF:11:1,2019-08-11T14:00:00Z,26.4679,-82.0631,1.74,30.89,11111222 
SCCF RECON,ioos:station:SCCF:11:1,2019-08-11T15:00:00Z,26.4679,-82.0631,1.74,30.85,11111222 
SCCF RECON,ioos:station:SCCF:11:1,2019-08-11T16:00:00Z,26.4679,-82.0631,1.74,30.91,11111222 
SCCF RECON,ioos:station:SCCF:11:1,2019-08-11T17:00:00Z,26.4679,-82.0631,1.74,30.83,11111222 
SCCF RECON,ioos:station:SCCF:11:1,2019-08-11T18:00:00Z,26.4679,-82.0631,1.74,30.52,11111222 
SCCF RECON,ioos:station:SCCF:11:1,2019-08-11T19:00:00Z,26.4679,-82.0631,1.74,30.53,11111222 
SCCF RECON,ioos:station:SCCF:11:1,2019-08-11T20:00:00Z,26.4679,-82.0631,1.74,30.51,11111222 
SCCF RECON,ioos:station:SCCF:11:1,2019-08-11T21:00:00Z,26.4679,-82.0631,1.74,30.4,11111222 
SCCF RECON,ioos:station:SCCF:11:1,2019-08-11T22:00:00Z,26.4679,-82.0631,1.74,30.5,11111222 
SCCF RECON,ioos:station:SCCF:11:1,2019-08-11T23:00:00Z,26.4679,-82.0631,1.74,30.55,11111222 
SCCF RECON,ioos:station:SCCF:11:1,2019-08-12T04:00:00Z,26.4679,-82.0631,1.74,30.49,11111222 
SCCF RECON,ioos:station:SCCF:11:1,2019-08-12T05:00:00Z,26.4679,-82.0631,1.74,30.56,11111222 
SCCF RECON,ioos:station:SCCF:11:1,2019-08-12T06:00:00Z,26.4679,-82.0631,1.74,30.6,11111222 
SCCF RECON,ioos:station:SCCF:11:1,2019-08-12T07:00:00Z,26.4679,-82.0631,1.74,30.54,11111222 
SCCF RECON,ioos:station:SCCF:11:1,2019-08-12T08:00:00Z,26.4679,-82.0631,1.74,30.45,11111222 
SCCF RECON,ioos:station:SCCF:11:1,2019-08-12T10:00:00Z,26.4679,-82.0631,1.74,30.08,11111222 
SCCF RECON,ioos:station:SCCF:11:1,2019-08-12T11:00:00Z,26.4679,-82.0631,1.74,30.29,11111222 
SCCF RECON,ioos:station:SCCF:11:1,2019-08-12T12:00:00Z,26.4679,-82.0631,1.74,29.77,11111222 
SCCF RECON,ioos:station:SCCF:11:1,2019-08-12T13:00:00Z,26.4679,-82.0631,1.74,30.04,11111222 
SCCF RECON,ioos:station:SCCF:11:1,2019-08-12T14:00:00Z,26.4679,-82.0631,1.74,29.65,11111222 
SCCF RECON,ioos:station:SCCF:11:1,2019-08-12T15:00:00Z,26.4679,-82.0631,1.74,29.86,11111222 
SCCF RECON,ioos:station:SCCF:11:1,2019-08-12T16:00:00Z,26.4679,-82.0631,1.74,30.1,11111222 
SCCF RECON,ioos:station:SCCF:11:1,2019-08-12T17:00:00Z,26.4679,-82.0631,1.74,30.17,11111222 
SCCF RECON,ioos:station:SCCF:11:1,2019-08-12T18:00:00Z,26.4679,-82.0631,1.74,30.23,11111222 
SCCF RECON,ioos:station:SCCF:11:1,2019-08-12T19:00:00Z,26.4679,-82.0631,1.74,30.62,11111222 
SCCF RECON,ioos:station:SCCF:11:1,2019-08-12T20:00:00Z,26.4679,-82.0631,1.74,30.57,11111222 
SCCF RECON,ioos:station:SCCF:11:1,2019-08-12T21:00:00Z,26.4679,-82.0631,1.74,30.51,11111222 
SCCF RECON,ioos:station:SCCF:11:1,2019-08-12T22:00:00Z,26.4679,-82.0631,1.74,30.51,11111222 
SCCF RECON,ioos:station:SCCF:11:1,2019-08-12T23:00:00Z,26.4679,-82.0631,1.74,30.51,11111222 
SCCF RECON,ioos:station:SCCF:11:1,2019-08-13T04:00:00Z,26.4679,-82.0631,1.74,30.25,11111222 
SCCF RECON,ioos:station:SCCF:11:1,2019-08-13T05:00:00Z,26.4679,-82.0631,1.74,30.27,11111222 
SCCF RECON,ioos:station:SCCF:11:1,2019-08-13T06:00:00Z,26.4679,-82.0631,1.74,30.29,11111222 
SCCF RECON,ioos:station:SCCF:11:1,2019-08-13T07:00:00Z,26.4679,-82.0631,1.74,30.29,11111222 
SCCF RECON,ioos:station:SCCF:11:1,2019-08-13T08:00:00Z,26.4679,-82.0631,1.74,30.26,11111222 
SCCF RECON,ioos:station:SCCF:11:1,2019-08-13T09:00:00Z,26.4679,-82.0631,1.74,30.2,11111222 
SCCF RECON,ioos:station:SCCF:11:1,2019-08-13T10:00:00Z,26.4679,-82.0631,1.74,30.08,11111222 
SCCF RECON,ioos:station:SCCF:11:1,2019-08-13T11:00:00Z,26.4679,-82.0631,1.74,29.94,11111222 
SCCF RECON,ioos:station:SCCF:11:1,2019-08-13T12:00:00Z,26.4679,-82.0631,1.74,29.9,11111222 
SCCF RECON,ioos:station:SCCF:11:1,2019-08-13T13:00:00Z,26.4679,-82.0631,1.74,29.89,11111222 
SCCF RECON,ioos:station:SCCF:11:1,2019-08-13T14:00:00Z,26.4679,-82.0631,1.74,30.11,11111222 
SCCF RECON,ioos:station:SCCF:11:1,2019-08-13T15:00:00Z,26.4679,-82.0631,1.74,30.22,11111222 
SCCF RECON,ioos:station:SCCF:11:1,2019-08-13T16:00:00Z,26.4679,-82.0631,1.74,30.47,11111222 
SCCF RECON,ioos:station:SCCF:11:1,2019-08-13T17:00:00Z,26.4679,-82.0631,1.74,30.18,11111222 
SCCF RECON,ioos:station:SCCF:11:1,2019-08-13T18:00:00Z,26.4679,-82.0631,1.74,30.4,11111222 
SCCF RECON,ioos:station:SCCF:11:1,2019-08-13T19:00:00Z,26.4679,-82.0631,1.74,31.13,11111222 
SCCF RECON,ioos:station:SCCF:11:1,2019-08-13T20:00:00Z,26.4679,-82.0631,1.74,31.3,11111222 
SCCF RECON,ioos:station:SCCF:11:1,2019-08-13T21:00:00Z,26.4679,-82.0631,1.74,31.49,11111222 